Regional Weather Roundup
Issued by NWS Cleveland, OH

Home | Current Version | Previous Version | Graphics & Text | Print | Product List | Glossary On
Versions: 1 2 3 4 5 6 7 8 9 10 11 12 13 14 15 16 17 18 19 20 21 22 23 24 25 26 27 28 29 30 31 32 33 34 35 36 37 38 39 40 41 42 43 44 45 46 47 48 49 50
000
ASUS41 KCLE 301312
RWRCLE
OHIO REGIONAL WEATHER ROUNDUP
NATIONAL WEATHER SERVICE WILMINGTON, OH
900 AM EDT FRI SEP 30 2016

NOTE: "FAIR" INDICATES FEW OR NO CLOUDS BELOW 12,000 FEET WITH NO
SIGNIFICANT WEATHER AND/OR OBSTRUCTIONS TO VISIBILITY.

OHZ001>008-015>018-024>027-034-035-043-044-301400-
   NORTHWEST OHIO

CITY           SKY/WX    TMP DP  RH WIND       PRES   REMARKS
DEFIANCE       CLOUDY    62  57  83 NE8       30.10R
FINDLAY        CLOUDY    62  57  83 E8        30.08R
TOLEDO EXPRESS CLOUDY    62  60  93 E15       30.11R
TOLEDO EXEC    PTSUNNY   63  60  90 E10       30.11R
LIMA           CLOUDY    60  59  96 E9        30.08R
$$

OHZ009>014-019>023-028>033-038-089-301400-
   NORTHEAST OHIO

CITY           SKY/WX    TMP DP  RH WIND       PRES   REMARKS
CLE-HOPKINS    CLOUDY    61  54  77 E15G25    30.13F
CLE-LAKEFRONT  PTSUNNY   61  55  81 E9G18     30.11F
CUY CO. ARPT   PTSUNNY   61  57  88 E14G21    30.14R
LORAIN-ELYRIA  NOT AVBL
ASHTABULA      CLOUDY    58  56  93 E16       30.20R
AKRON-CANTON   LGT RAIN  58  54  86 E15G24    30.11S
WOOSTER        CLOUDY    58  55  90 E12       30.10F
MANSFIELD      CLOUDY    59  57  93 E15G25    30.08F
YOUNGSTOWN     LGT RAIN  56  54  93 E16G26    30.17S
$$

OHZ042-051>053-060>062-070>072-077>081-301400-
  SOUTHWEST OHIO

CITY           SKY/WX    TMP DP  RH WIND       PRES   REMARKS
CINC-COVINGTON CLOUDY    59  57  93 E6        30.02S
CINC-LUNKEN    CLOUDY    58  58 100 CALM      30.03S FOG
HAMILTON       LGT RAIN  59  58  96 CALM      30.03F FOG
DAYTON         LGT RAIN  60  59  96 E6        30.04R FOG
WRIGHT-PAT AFB DRIZZLE   61  61 100 CALM      30.03R
DAYTON GENERAL CLOUDY    58  56  93 NW5       30.02S
WILMINGTON     CLOUDY    57  57 100 CALM      30.03S
$$

OHZ036-037-039>041-045>050-054>059-063>069-073>076-082>088-301400-
  CENTRAL AND SOUTHEAST OHIO

CITY           SKY/WX    TMP DP  RH WIND       PRES   REMARKS
COLUMBUS       CLOUDY    61  61 100 SE9       30.04F
OSU AIRPORT    LGT RAIN  61  60  97 E9        30.04F
BOLTON FIELD   CLOUDY    61  61 100 E7        30.05F
RICKENBACK AFB CLOUDY    59  60 100 E8        30.04R
NEWARK         CLOUDY    61  58  90 E8        30.06S
MARION         CLOUDY    62  56  80 SE13      30.08R
LANCASTER      CLOUDY    61  59  93 E9        30.04R
ZANESVILLE     CLOUDY    61  57  87 E9        30.06S
NEW PHILLY     CLOUDY    59  57  93 E7        30.09F
$$




USA.gov is the U.S. government's official web portal to all federal, state and local government web resources and services.